EW6393 Weather Reports


Display with metric or nautical units.
time (UTC)temp
F
wind
direction
speed
MPH
gust
MPH
rain 1hr
in
rain 24hr
in
rain mn
in
humidity
%
barometer
mb
20260509231138 73 308 2.0 9.0 0.00 0.00 0.00 15 1018.9
20260509230618 73 337 2.0 9.0 0.00 0.00 0.00 14 1019.1
20260509230125 73 23 4.0 7.0 0.00 0.00 0.00 14 1019.0
20260509225625 73 300 3.0 7.0 0.00 0.00 0.00 14 1019.0
20260509225126 73 347 3.0 7.0 0.00 0.00 0.00 15 1019.1
20260509224634 73 261 2.0 8.0 0.00 0.00 0.00 14 1019.2
20260509224114 73 333 4.0 8.0 0.00 0.00 0.00 15 1019.3
20260509223615 73 245 4.0 8.0 0.00 0.00 0.00 16 1019.2
20260509223122 73 257 3.0 11.0 0.00 0.00 0.00 16 1019.1
20260509222644 73 250 5.0 11.0 0.00 0.00 0.00 17 1019.2
20260509222131 73 326 2.0 11.0 0.00 0.00 0.00 18 1019.2
20260509221611 73 295 4.0 11.0 0.00 0.00 0.00 18 1019.4
20260509221159 73 304 2.0 9.0 0.00 0.00 0.00 18 1019.3
20260509220617 72 314 5.0 9.0 0.00 0.00 0.00 20 1019.3
20260509220116 72 38 3.0 9.0 0.00 0.00 0.00 19 1019.4
20260509215620 72 29 2.0 13.0 0.00 0.00 0.00 20 1019.4
20260509215121 73 264 4.0 13.0 0.00 0.00 0.00 20 1019.5
20260509214628 72 280 3.0 12.0 0.00 0.00 0.00 19 1019.4
20260509214129 72 274 4.0 12.0 0.00 0.00 0.00 19 1019.5
20260509213639 72 31 4.0 10.0 0.00 0.00 0.00 19 1019.4
20260509213140 72 351 2.0 14.0 0.00 0.00 0.00 19 1019.4
20260509212624 72 307 6.0 14.0 0.00 0.00 0.00 18 1019.6
20260509212125 72 279 3.0 7.0 0.00 0.00 0.00 18 1019.4
20260509211633 72 308 2.0 8.0 0.00 0.00 0.00 20 1019.5
20260509211114 72 280 4.0 8.0 0.00 0.00 0.00 19 1019.6
20260509210614 72 352 3.0 8.0 0.00 0.00 0.00 19 1019.7
20260509210114 72 263 3.0 9.0 0.00 0.00 0.00 18 1019.7
20260509205621 72 233 5.0 9.0 0.00 0.00 0.00 19 1019.6
20260509205149 72 296 3.0 7.0 0.00 0.00 0.00 16 1019.6
20260509204628 72 10 3.0 12.0 0.00 0.00 0.00 17 1019.7
20260509204129 72 323 3.0 12.0 0.00 0.00 0.00 18 1019.7
20260509203638 71 300 2.0 13.0 0.00 0.00 0.00 17 1019.7
20260509203117 71 257 5.0 13.0 0.00 0.00 0.00 16 1019.7
20260509202644 71 248 5.0 11.0 0.00 0.00 0.00 17 1019.7
20260509202123 72 261 4.0 10.0 0.00 0.00 0.00 19 1019.8
20260509201631 71 262 3.0 8.0 0.00 0.00 0.00 20 1019.8
20260509201112 71 272 3.0 7.0 0.00 0.00 0.00 19 1019.9
20260509200613 71 261 3.0 7.0 0.00 0.00 0.00 20 1020.1
20260509200119 71 309 3.0 7.0 0.00 0.00 0.00 20 1019.9
20260509195620 71 279 3.0 7.0 0.00 0.00 0.00 21 1020.0
20260509195148 71 288 3.0 10.0 0.00 0.00 0.00 18 1019.9
20260509194627 71 271 4.0 10.0 0.00 0.00 0.00 18 1020.1
20260509194129 70 311 1.0 10.0 0.00 0.00 0.00 19 1020.1
20260509193617 71 344 4.0 13.0 0.00 0.00 0.00 22 1020.2
20260509193138 70 258 4.0 13.0 0.00 0.00 0.00 20 1020.2
20260509192625 71 283 4.0 7.0 0.00 0.00 0.00 19 1020.3
20260509192125 71 278 3.0 14.0 0.00 0.00 0.00 18 1020.3
20260509191627 70 323 5.0 14.0 0.00 0.00 0.00 20 1020.2
20260509191134 70 296 5.0 10.0 0.00 0.00 0.00 21 1020.2
20260509190615 70 257 5.0 12.0 0.00 0.00 0.00 20 1020.3
20260509190116 70 297 5.0 11.0 0.00 0.00 0.00 20 1020.3
20260509185620 69 142 2.0 8.0 0.00 0.00 0.00 22 1020.3
20260509185121 70 295 4.0 8.0 0.00 0.00 0.00 19 1020.4
20260509184629 70 298 3.0 8.0 0.00 0.00 0.00 19 1020.4
20260509184130 69 30 4.0 9.0 0.00 0.00 0.00 19 1020.5
20260509183632 69 34 3.0 9.0 0.00 0.00 0.00 18 1020.6
20260509183119 70 293 3.0 9.0 0.00 0.00 0.00 19 1020.5
20260509182620 69 323 3.0 8.0 0.00 0.00 0.00 20 1020.4
20260509182121 69 289 2.0 10.0 0.00 0.00 0.00 17 1020.4
20260509181629 68 281 5.0 13.0 0.00 0.00 0.00 18 1020.5
20260509181111 69 249 6.0 13.0 0.00 0.00 0.00 18 1020.5
20260509180612 69 290 5.0 11.0 0.00 0.00 0.00 17 1020.4
20260509180120 69 306 6.0 16.0 0.00 0.00 0.00 17 1020.4
20260509175621 68 237 8.0 16.0 0.00 0.00 0.00 16 1020.5
20260509175129 68 291 3.0 13.0 0.00 0.00 0.00 19 1020.5
20260509174630 68 271 5.0 13.0 0.00 0.00 0.00 18 1020.5
20260509174111 68 15 4.0 10.0 0.00 0.00 0.00 19 1020.6
20260509173611 68 34 4.0 9.0 0.00 0.00 0.00 18 1020.6
20260509173138 68 18 4.0 10.0 0.00 0.00 0.00 20 1020.5
20260509172627 68 278 5.0 10.0 0.00 0.00 0.00 20 1020.5
20260509172126 68 252 5.0 10.0 0.00 0.00 0.00 21 1020.6
20260509171628 67 177 5.0 10.0 0.00 0.00 0.00 20 1020.5
20260509171136 68 89 5.0 14.0 0.00 0.00 0.00 20 1020.5
20260509170616 67 333 8.0 14.0 0.00 0.00 0.00 17 1020.5
20260509170115 67 284 4.0 11.0 0.00 0.00 0.00 21 1020.6
20260509165622 67 285 3.0 10.0 0.00 0.00 0.00 22 1020.5
20260509165124 67 290 3.0 10.0 0.00 0.00 0.00 21 1020.5
20260509164625 66 295 5.0 9.0 0.00 0.00 0.00 20 1020.6
20260509164133 66 312 4.0 10.0 0.00 0.00 0.00 21 1020.6
20260509163614 66 274 6.0 14.0 0.00 0.00 0.00 20 1020.5
20260509163142 66 136 5.0 14.0 0.00 0.00 0.00 21 1020.4
20260509162622 66 291 5.0 11.0 0.00 0.00 0.00 20 1020.4
20260509162123 66 261 5.0 11.0 0.00 0.00 0.00 20 1020.4
20260509161630 66 306 2.0 10.0 0.00 0.00 0.00 22 1020.5
20260509161132 65 245 2.0 10.0 0.00 0.00 0.00 23 1020.6
20260509160611 65 314 6.0 10.0 0.00 0.00 0.00 22 1020.6
20260509160118 66 300 3.0 8.0 0.00 0.00 0.00 22 1020.6
20260509155620 65 287 2.0 8.0 0.00 0.00 0.00 23 1020.6
20260509155128 65 293 4.0 10.0 0.00 0.00 0.00 23 1020.6
20260509154658 65 264 6.0 9.0 0.00 0.00 0.00 22 1020.6
20260509154117 65 311 1.0 8.0 0.00 0.00 0.00 25 1020.5
20260509153618 65 293 5.0 9.0 0.00 0.00 0.00 24 1020.5
20260509153145 65 295 3.0 8.0 0.00 0.00 0.00 24 1020.4
20260509152625 65 240 3.0 5.0 0.00 0.00 0.00 26 1020.4
20260509152152 65 318 1.0 3.0 0.00 0.00 0.00 28 1020.4
20260509151612 64 291 1.0 5.0 0.00 0.00 0.00 26 1020.4
20260509151114 64 276 4.0 5.0 0.00 0.00 0.00 27 1020.4
20260509150642 64 276 2.0 3.0 0.00 0.00 0.00 28 1020.4
20260509150128 64 285 1.0 3.0 0.00 0.00 0.00 29 1020.4
20260509145628 64 270 0.0 2.0 0.00 0.00 0.00 31 1020.3
20260509145135 63 241 1.0 3.0 0.00 0.00 0.00 33 1020.3
20260509144616 63 303 1.0 3.0 0.00 0.00 0.00 31 1020.4
20260509144117 64 264 0.0 3.0 0.00 0.00 0.00 33 1020.3
20260509143618 64 264 1.0 3.0 0.00 0.00 0.00 32 1020.2
20260509143126 63 243 0.0 3.0 0.00 0.00 0.00 33 1020.2
20260509142627 63 243 1.0 3.0 0.00 0.00 0.00 31 1020.2
20260509142134 63 272 1.0 3.0 0.00 0.00 0.00 30 1020.1
20260509141635 63 259 1.0 5.0 0.00 0.00 0.00 28 1020.1
20260509141122 63 271 3.0 5.0 0.00 0.00 0.00 26 1020.1
20260509140643 63 278 0.0 3.0 0.00 0.00 0.00 26 1020.1
20260509140130 63 310 1.0 4.0 0.00 0.00 0.00 25 1020.1
20260509135610 63 332 0.0 2.0 0.00 0.00 0.00 26 1019.9
20260509135119 63 18 1.0 2.0 0.00 0.00 0.00 25 1019.9
20260509134619 62 49 0.0 5.0 0.00 0.00 0.00 27 1019.8
20260509134147 62 250 0.0 8.0 0.00 0.00 0.00 26 1019.8
20260509133628 61 11 3.0 8.0 0.00 0.00 0.00 26 1019.6
20260509133129 60 306 1.0 6.0 0.00 0.00 0.00 27 1019.6
20260509132636 60 316 0.0 6.0 0.00 0.00 0.00 28 1019.6
20260509132118 60 266 1.0 6.0 0.00 0.00 0.00 27 1019.4
20260509131618 60 268 1.0 6.0 0.00 0.00 0.00 27 1019.4
20260509131146 60 321 1.0 6.0 0.00 0.00 0.00 27 1019.3
20260509130627 60 314 2.0 9.0 0.00 0.00 0.00 27 1019.3
20260509130133 59 292 3.0 10.0 0.00 0.00 0.00 27 1019.2
20260509125615 59 343 3.0 10.0 0.00 0.00 0.00 28 1019.2
20260509125115 59 60 1.0 5.0 0.00 0.00 0.00 29 1019.2
20260509124622 59 283 0.0 7.0 0.00 0.00 0.00 29 1019.1
20260509124123 58 349 1.0 7.0 0.00 0.00 0.00 29 1019.0
20260509123624 57 329 1.0 5.0 0.00 0.00 0.00 29 1019.0
20260509123132 56 305 0.0 4.0 0.00 0.00 0.00 31 1018.9
20260509122613 56 287 0.0 2.0 0.00 0.00 0.00 32 1018.8
20260509122140 56 328 0.0 1.0 0.00 0.00 0.00 32 1018.8
20260509121637 55 300 0.0 2.0 0.00 0.00 0.00 33 1018.8
20260509121124 55 302 0.0 2.0 0.00 0.00 0.00 35 1018.8
20260509120625 54 347 0.0 2.0 0.00 0.00 0.00 33 1018.7
20260509120133 54 350 0.0 2.0 0.00 0.00 0.00 35 1018.7
20260509115613 53 281 0.0 1.0 0.00 0.00 0.00 36 1018.7
20260509115134 53 65 0.0 2.0 0.00 0.00 0.00 37 1018.6
20260509114641 52 65 0.0 2.0 0.00 0.00 0.00 41 1018.5
20260509114128 52 121 0.0 1.0 0.00 0.00 0.00 43 1018.5
20260509113649 53 121 0.0 2.0 0.00 0.00 0.00 45 1018.5
20260509113136 53 121 0.0 2.0 0.00 0.00 0.00 45 1018.5
20260509112618 53 60 1.0 3.0 0.00 0.00 0.00 42 1018.5
20260509112119 54 60 1.0 3.0 0.00 0.00 0.00 42 1018.5
20260509111620 53 35 0.0 2.0 0.00 0.00 0.00 45 1018.5
20260509111127 53 31 1.0 2.0 0.00 0.00 0.00 45 1018.4
20260509110629 53 78 1.0 2.0 0.00 0.00 0.00 45 1018.3
20260509110115 53 96 0.0 2.0 0.00 0.00 0.00 46 1018.4
20260509105616 53 101 1.0 2.0 0.00 0.00 0.00 47 1018.3
20260509105122 54 46 0.0 2.0 0.00 0.00 0.00 46 1018.4
20260509104629 54 46 0.0 2.0 0.00 0.00 0.00 45 1018.3
20260509104126 54 77 0.0 2.0 0.00 0.00 0.00 46 1018.2
20260509103610 54 77 1.0 2.0 0.00 0.00 0.00 46 1018.2
20260509103134 54 65 1.0 2.0 0.00 0.00 0.00 47 1018.2
20260509102613 54 65 0.0 2.0 0.00 0.00 0.00 46 1018.1
20260509102122 54 64 1.0 2.0 0.00 0.00 0.00 47 1018.2
20260509101629 54 78 1.0 1.0 0.00 0.00 0.00 47 1018.2
20260509101129 54 299 0.0 1.0 0.00 0.00 0.00 46 1018.1
20260509100658 55 299 0.0 2.0 0.00 0.00 0.00 46 1018.0
20260509100116 55 51 0.0 2.0 0.00 0.00 0.00 45 1017.9
20260509095618 55 63 0.0 2.0 0.00 0.00 0.00 46 1017.9
20260509095126 55 63 1.0 2.0 0.00 0.00 0.00 45 1017.7
20260509094628 55 89 0.0 1.0 0.00 0.00 0.00 45 1017.7
20260509094128 55 89 0.0 1.0 0.00 0.00 0.00 44 1017.6
20260509093636 56 89 0.0 2.0 0.00 0.00 0.00 44 1017.6
20260509093117 56 89 1.0 2.0 0.00 0.00 0.00 43 1017.5
20260509092617 56 61 0.0 1.0 0.00 0.00 0.00 43 1017.5
20260509092125 56 62 0.0 1.0 0.00 0.00 0.00 43 1017.5
20260509091626 56 62 0.0 1.0 0.00 0.00 0.00 42 1017.5
20260509091112 57 62 1.0 1.0 0.00 0.00 0.00 42 1017.4
20260509090620 57 61 1.0 1.0 0.00 0.00 0.00 42 1017.3
20260509090121 57 62 0.0 1.0 0.00 0.00 0.00 41 1017.4
20260509085621 58 62 0.0 2.0 0.00 0.00 0.00 40 1017.3
20260509085145 58 61 1.0 2.0 0.00 0.00 0.00 40 1017.3
20260509084632 58 61 1.0 2.0 0.00 0.00 0.00 40 1017.2
20260509084116 58 61 1.0 2.0 0.00 0.00 0.00 40 1017.2
20260509083617 58 60 0.0 1.0 0.00 0.00 0.00 41 1017.1
20260509083118 58 60 1.0 1.0 0.00 0.00 0.00 40 1017.1
20260509082625 58 60 1.0 1.0 0.00 0.00 0.00 39 1017.0
20260509082127 58 60 0.0 2.0 0.00 0.00 0.00 39 1017.0
20260509081634 59 60 1.0 2.0 0.00 0.00 0.00 38 1016.9
20260509081115 59 60 1.0 2.0 0.00 0.00 0.00 38 1016.8
20260509080616 59 85 1.0 1.0 0.00 0.00 0.00 39 1016.8
20260509080122 59 89 1.0 2.0 0.00 0.00 0.00 39 1016.7
20260509075623 59 94 1.0 2.0 0.00 0.00 0.00 40 1016.6
20260509075131 59 94 0.0 1.0 0.00 0.00 0.00 39 1016.7
20260509074612 59 94 0.0 2.0 0.00 0.00 0.00 39 1016.7
20260509074113 60 61 1.0 2.0 0.00 0.00 0.00 39 1016.6
20260509073613 59 63 1.0 2.0 0.00 0.00 0.00 38 1016.6
20260509073120 59 59 0.0 2.0 0.00 0.00 0.00 38 1016.6
20260509072621 59 85 0.0 2.0 0.00 0.00 0.00 38 1016.5
20260509072129 59 61 1.0 2.0 0.00 0.00 0.00 38 1016.5
20260509071630 59 61 0.0 2.0 0.00 0.00 0.00 38 1016.5
20260509071111 60 61 1.0 2.0 0.00 0.00 0.00 38 1016.4
20260509070612 60 76 1.0 2.0 0.00 0.00 0.00 37 1016.4
20260509070118 60 78 1.0 2.0 0.00 0.00 0.00 37 1016.4
20260509065620 60 53 0.0 1.0 0.00 0.00 0.00 37 1016.4
20260509065149 60 53 0.0 1.0 0.00 0.00 0.00 36 1016.3
20260509064629 61 52 1.0 1.0 0.00 0.00 0.00 35 1016.3
20260509064138 61 65 1.0 1.0 0.00 0.00 0.00 34 1016.2
20260509063617 61 65 1.0 1.0 0.00 0.00 0.00 33 1016.1
20260509063126 61 66 1.0 2.0 0.00 0.00 0.00 34 1015.9
20260509062626 62 66 1.0 2.0 0.00 0.00 0.00 33 1016.0
20260509062127 61 53 0.0 2.0 0.00 0.00 0.00 33 1016.0
20260509061635 61 77 1.0 2.0 0.00 0.00 0.00 33 1015.8
20260509061116 61 75 1.0 2.0 0.00 0.00 0.00 34 1015.9
20260509060613 61 67 1.0 4.0 0.00 0.00 0.00 34 1015.8
20260509060140 61 82 2.0 4.0 0.00 0.00 0.00 35 1015.8
20260509055621 61 86 1.0 2.0 0.00 0.00 0.00 34 1015.9
20260509055128 61 60 1.0 1.0 0.00 0.00 0.00 35 1015.9
20260509054629 61 58 0.0 2.0 0.00 0.00 0.00 35 1015.9
20260509054137 61 58 1.0 4.0 0.00 0.00 0.00 35 1015.9
20260509053618 62 290 0.0 4.0 0.00 0.00 0.00 34 1015.9
20260509053120 62 141 0.0 1.0 0.00 0.00 0.00 32 1015.7
20260509052621 63 141 0.0 3.0 0.00 0.00 0.00 32 1015.7
20260509052128 63 234 0.0 3.0 0.00 0.00 0.00 31 1015.6
20260509051629 63 111 1.0 4.0 0.00 0.00 0.00 30 1015.5
20260509051130 63 106 2.0 5.0 0.00 0.00 0.00 32 1015.5
20260509050616 64 266 1.0 5.0 0.00 0.00 0.00 32 1015.7
20260509050131 64 73 0.0 3.0 0.00 0.00 0.00 29 1015.5
20260509045612 63 65 2.0 2.0 0.00 0.00 0.00 30 1015.5
20260509045120 64 312 0.0 1.0 0.00 0.00 0.00 31 1015.6
20260509044620 64 114 0.0 1.0 0.00 0.00 0.00 29 1015.4
20260509044127 64 114 0.0 1.0 0.00 0.00 0.00 29 1015.4
20260509043656 64 103 0.0 0.0 0.00 0.00 0.00 29 1015.3
20260509043137 64 103 0.0 1.0 0.00 0.00 0.00 30 1015.2
20260509042626 64 103 0.0 1.0 0.00 0.00 0.00 30 1015.2
20260509042125 64 103 0.0 1.0 0.00 0.00 0.00 30 1015.1
20260509041653 65 103 0.0 1.0 0.00 0.00 0.00 29 1015.1
20260509041114 65 103 0.0 1.0 0.00 0.00 0.00 29 1015.1
20260509040615 65 103 0.0 1.0 0.00 0.00 0.00 29 1015.1
20260509040122 65 103 0.0 1.0 0.00 0.00 0.00 29 1015.1
20260509035622 66 103 0.0 2.0 0.00 0.00 0.00 28 1015.0
20260509035123 65 87 1.0 2.0 0.00 0.00 0.00 29 1015.0
20260509034631 65 52 0.0 1.0 0.00 0.00 0.00 29 1015.0
20260509034133 65 52 0.0 0.0 0.00 0.00 0.00 29 1014.9
20260509033639 66 52 0.0 0.0 0.00 0.00 0.00 28 1014.8
20260509033119 66 52 0.0 2.0 0.00 0.00 0.00 28 1014.7
20260509032627 66 52 1.0 2.0 0.00 0.00 0.00 27 1014.6
20260509032128 66 58 0.0 2.0 0.00 0.00 0.00 28 1014.6
20260509031629 66 58 0.0 2.0 0.00 0.00 0.00 28 1014.5
20260509031137 66 66 0.0 1.0 0.00 0.00 0.00 28 1014.5
20260509030618 66 65 1.0 2.0 0.00 0.00 0.00 28 1014.5
20260509030117 67 58 0.0 2.0 0.00 0.00 0.00 27 1014.5
20260509025625 67 58 1.0 2.0 0.00 0.00 0.00 27 1014.5
20260509025126 67 65 0.0 2.0 0.00 0.00 0.00 27 1014.4
20260509024635 67 64 0.0 2.0 0.00 0.00 0.00 27 1014.5
20260509024115 67 58 0.0 1.0 0.00 0.00 0.00 27 1014.4
20260509023616 68 49 0.0 1.0 0.00 0.00 0.00 28 1014.4
20260509023120 68 49 0.0 1.0 0.00 0.00 0.00 27 1014.4
20260509022620 69 49 0.0 1.0 0.00 0.00 0.00 27 1014.4
20260509022121 69 43 0.0 1.0 0.00 0.00 0.00 27 1014.4
20260509021650 70 43 0.0 1.0 0.00 0.00 0.00 27 1014.4
20260509021137 71 40 0.0 1.0 0.00 0.00 0.00 26 1014.4
20260509020619 72 39 0.0 1.0 0.00 0.00 0.00 25 1014.4
20260509020149 72 40 0.0 1.0 0.00 0.00 0.00 24 1014.4
20260509015629 74 40 0.0 0.0 0.00 0.00 0.00 23 1014.5
20260509015153 75 40 0.0 1.0 0.00 0.00 0.00 23 1014.5
20260509014617 76 311 0.0 0.0 0.00 0.00 0.00 20 1014.4
20260509014136 76 276 0.0 3.0 0.00 0.00 0.00 20 1014.5
20260509013622 77 276 0.0 3.0 0.00 0.00 0.00 19 1014.5
20260509013123 77 274 1.0 3.0 0.00 0.00 0.00 19 1014.6
20260509012631 78 275 0.0 1.0 0.00 0.00 0.00 19 1014.6
20260509012115 77 347 0.0 1.0 0.00 0.00 0.00 20 1014.7
20260509011659 77 87 0.0 3.0 0.00 0.00 0.00 20 1014.7
20260509011118 78 79 2.0 3.0 0.00 0.00 0.00 18 1014.8
20260509010619 79 159 0.0 2.0 0.00 0.00 0.00 20 1014.9
20260509010127 78 198 0.0 6.0 0.00 0.00 0.00 20 1014.9
20260509005611 78 288 1.0 6.0 0.00 0.00 0.00 18 1014.9
20260509005126 79 123 2.0 5.0 0.00 0.00 0.00 18 1014.9
20260509004633 79 212 0.0 2.0 0.00 0.00 0.00 20 1015.0
20260509004114 78 241 0.0 5.0 0.00 0.00 0.00 21 1015.0
20260509003640 79 278 1.0 4.0 0.00 0.00 0.00 18 1015.1
20260509003120 78 111 1.0 3.0 0.00 0.00 0.00 19 1015.1
20260509002628 78 252 1.0 6.0 0.00 0.00 0.00 19 1015.0
20260509001611 77 231 1.0 8.0 0.00 0.00 0.00 21 1015.2
20260509001139 77 290 2.0 6.0 0.00 0.00 0.00 20 1015.2
20260509000639 77 107 1.0 4.0 0.00 0.00 0.00 21 1015.2
20260509000125 77 105 2.0 6.0 0.00 0.00 0.00 19 1015.3
20260508235626 77 313 1.0 6.0 0.00 0.00 0.00 19 1015.4
20260508235124 77 242 3.0 9.0 0.00 0.00 0.00 21 1015.4
20260508234632 77 289 5.0 9.0 0.00 0.00 0.00 20 1015.4
20260508234113 77 282 1.0 8.0 0.00 0.00 0.00 21 1015.4
20260508233615 77 281 3.0 8.0 0.00 0.00 0.00 21 1015.3
20260508233123 77 311 2.0 5.0 0.00 0.00 0.00 21 1015.4
20260508232624 76 146 0.0 8.0 0.00 0.00 0.00 22 1015.4
20260508232125 76 266 4.0 8.0 0.00 0.00 0.00 20 1015.5
20260508231633 76 285 4.0 10.0 0.00 0.00 0.00 20 1015.5